TimeMST,TemperatureF,Dew PointF,Humidity,Sea Level PressureIn,VisibilityMPH,Wind Direction,Wind SpeedMPH,Gust SpeedMPH,PrecipitationIn,Events,Conditions,WindDirDegrees,DateUTC
12:25 AM,-11.9,-16.1,82,30.30,10.0,North,8.1,-,0.00,,Scattered Clouds,360,2014-02-05 07:25:00
12:53 AM,-13.0,-16.1,86,30.64,10.0,North,6.9,-,0.00,,Clear,360,2014-02-05 07:53:00
1:53 AM,-15.0,-17.0,91,30.66,10.0,North,6.9,-,N/A,,Clear,350,2014-02-05 08:53:00
2:53 AM,-16.1,-18.0,91,30.68,10.0,North,8.1,-,N/A,,Clear,350,2014-02-05 09:53:00
3:53 AM,-16.1,-18.0,91,30.69,10.0,North,5.8,-,N/A,,Clear,360,2014-02-05 10:53:00
4:53 AM,-16.1,-18.0,91,30.71,10.0,North,5.8,-,N/A,,Clear,360,2014-02-05 11:53:00
5:53 AM,-11.9,-15.0,86,30.71,10.0,NW,5.8,-,N/A,,Clear,320,2014-02-05 12:53:00
6:53 AM,-18.0,-20.9,87,30.75,10.0,WNW,4.6,-,N/A,,Clear,290,2014-02-05 13:53:00
7:23 AM,-18.0,-20.9,87,30.37,1.8,West,6.9,-,N/A,,Clear,280,2014-02-05 14:23:00
7:40 AM,-17.0,-18.9,91,30.37,1.2,WNW,6.9,-,N/A,,Clear,300,2014-02-05 14:40:00
7:45 AM,-17.0,-18.9,91,30.37,2.0,WNW,6.9,-,N/A,,Clear,300,2014-02-05 14:45:00
7:53 AM,-17.0,-20.0,86,30.76,9.0,WNW,8.1,-,N/A,,Clear,290,2014-02-05 14:53:00
8:07 AM,-17.0,-20.0,86,30.37,1.8,West,9.2,-,N/A,,Clear,280,2014-02-05 15:07:00
8:09 AM,-17.0,-18.9,91,30.37,1.0,West,9.2,-,N/A,,Clear,280,2014-02-05 15:09:00
8:17 AM,-16.1,-18.9,87,30.37,0.5,West,9.2,-,N/A,Fog,Light Freezing Fog,280,2014-02-05 15:17:00
8:28 AM,-14.1,-17.0,87,30.38,0.8,West,8.1,-,N/A,,Mist,270,2014-02-05 15:28:00
8:32 AM,-14.1,-17.0,87,30.38,1.2,West,8.1,-,N/A,,Partly Cloudy,270,2014-02-05 15:32:00
8:35 AM,-14.1,-16.1,91,30.38,2.0,West,8.1,-,N/A,,Partly Cloudy,270,2014-02-05 15:35:00
8:43 AM,-13.0,-16.1,86,30.39,9.0,West,8.1,-,N/A,,Partly Cloudy,270,2014-02-05 15:43:00
8:53 AM,-11.9,-15.0,86,30.76,10.0,West,8.1,-,N/A,,Partly Cloudy,270,2014-02-05 15:53:00
9:53 AM,-9.0,-13.0,83,30.76,10.0,WSW,6.9,-,N/A,,Clear,250,2014-02-05 16:53:00
10:53 AM,-6.0,-11.0,79,30.75,10.0,West,5.8,-,N/A,,Clear,260,2014-02-05 17:53:00
11:53 AM,-5.1,-9.0,83,30.72,10.0,West,3.5,-,N/A,,Clear,280,2014-02-05 18:53:00
12:53 PM,-2.9,-8.0,79,30.71,10.0,Calm,Calm,-,0.00,,Clear,0,2014-02-05 19:53:00
1:33 PM,-4.0,-9.9,76,30.33,10.0,East,4.6,-,N/A,,Mostly Cloudy,80,2014-02-05 20:33:00
1:43 PM,-4.0,-9.9,76,30.32,10.0,East,5.8,-,N/A,,Mostly Cloudy,90,2014-02-05 20:43:00
1:53 PM,-4.0,-9.0,79,30.70,10.0,East,4.6,-,N/A,,Scattered Clouds,90,2014-02-05 20:53:00
2:53 PM,-5.1,-11.0,76,30.72,10.0,East,4.6,-,N/A,,Clear,90,2014-02-05 21:53:00
3:53 PM,-7.1,-11.9,79,30.73,10.0,East,4.6,-,N/A,,Mostly Cloudy,80,2014-02-05 22:53:00
4:53 PM,-8.0,-11.9,83,30.74,10.0,ESE,4.6,-,N/A,,Partly Cloudy,120,2014-02-05 23:53:00
5:53 PM,-9.0,-14.1,79,30.73,10.0,SE,5.8,-,N/A,,Mostly Cloudy,140,2014-02-06 00:53:00
6:53 PM,-9.0,-13.0,83,30.74,10.0,SE,4.6,-,N/A,,Overcast,130,2014-02-06 01:53:00
7:53 PM,-9.0,-11.9,87,30.73,10.0,SE,5.8,-,N/A,,Overcast,140,2014-02-06 02:53:00
8:53 PM,-6.0,-9.9,83,30.69,10.0,SSE,9.2,-,N/A,,Overcast,160,2014-02-06 03:53:00
9:53 PM,-6.0,-11.0,79,30.66,10.0,SSE,6.9,-,N/A,,Overcast,150,2014-02-06 04:53:00
10:53 PM,-8.0,-11.0,86,30.64,10.0,SSE,9.2,-,N/A,,Overcast,160,2014-02-06 05:53:00
11:53 PM,-8.0,-11.0,86,30.62,10.0,SSE,8.1,-,N/A,,Overcast,150,2014-02-06 06:53:00